| time (UTC) | temp C | wind direction | speed KPH | gust KPH | rain 1hr cm | rain 24hr cm | rain mn cm | humidity % | barometer mb |
| 20260504050403 | 34 | 164 | 3.2 | 4.8 | 0.00 | 0.00 | 0.00 | 55 | 1010.6 |
| 20260504045900 | 35 | 164 | 3.2 | 3.2 | 0.00 | 0.00 | 0.00 | 52 | 1010.4 |
| 20260504045355 | 34 | 160 | 1.6 | 3.2 | 0.00 | 0.00 | 0.00 | 56 | 1010.7 |
| 20260504044853 | 33 | 127 | 3.2 | 4.8 | 0.00 | 0.00 | 0.00 | 56 | 1010.5 |
| 20260504044350 | 33 | 263 | 0.0 | 4.8 | 0.00 | 0.00 | 0.00 | 57 | 1010.3 |
| 20260504043847 | 33 | 159 | 0.0 | 4.8 | 0.00 | 0.00 | 0.00 | 57 | 1010.5 |
| 20260504043344 | 34 | 222 | 0.0 | 1.6 | 0.00 | 0.00 | 0.00 | 57 | 1010.4 |
| 20260504042841 | 33 | 156 | 0.0 | 3.2 | 0.00 | 0.00 | 0.00 | 58 | 1010.4 |
| 20260504042338 | 33 | 184 | 6.4 | 6.4 | 0.00 | 0.00 | 0.00 | 57 | 1010.3 |
| 20260504041834 | 33 | 299 | 3.2 | 4.8 | 0.00 | 0.00 | 0.00 | 58 | 1010.4 |
| 20260504041330 | 32 | 165 | 3.2 | 9.7 | 0.00 | 0.00 | 0.00 | 60 | 1010.5 |
| 20260504040826 | 33 | 182 | 4.8 | 6.4 | 0.00 | 0.00 | 0.00 | 58 | 1010.5 |
| 20260504040324 | 32 | 178 | 1.6 | 3.2 | 0.00 | 0.00 | 0.00 | 59 | 1010.5 |
| 20260504035820 | 31 | 227 | 3.2 | 3.2 | 0.00 | 0.00 | 0.00 | 61 | 1010.5 |
| 20260504035318 | 32 | 179 | 6.4 | 9.7 | 0.00 | 0.00 | 0.00 | 62 | 1010.2 |
| 20260504034815 | 32 | 178 | 1.6 | 4.8 | 0.00 | 0.00 | 0.00 | 63 | 1010.5 |
| 20260504034312 | 32 | 204 | 1.6 | 3.2 | 0.00 | 0.00 | 0.00 | 61 | 1010.3 |
| 20260504033809 | 32 | 174 | 3.2 | 3.2 | 0.00 | 0.00 | 0.00 | 61 | 1010.4 |
| 20260504033307 | 31 | 147 | 3.2 | 6.4 | 0.00 | 0.00 | 0.00 | 63 | 1010.2 |
| 20260504032803 | 31 | 148 | 3.2 | 4.8 | 0.00 | 0.00 | 0.00 | 64 | 1010.4 |
| 20260504032300 | 32 | 171 | 1.6 | 3.2 | 0.00 | 0.00 | 0.00 | 63 | 1010.0 |
| 20260504031757 | 31 | 158 | 3.2 | 4.8 | 0.00 | 0.00 | 0.00 | 65 | 1010.0 |
| 20260504031255 | 31 | 160 | 1.6 | 6.4 | 0.00 | 0.00 | 0.00 | 64 | 1010.0 |
| 20260504030750 | 31 | 158 | 3.2 | 3.2 | 0.00 | 0.00 | 0.00 | 63 | 1010.1 |
| 20260504030248 | 31 | 168 | 0.0 | 4.8 | 0.00 | 0.00 | 0.00 | 65 | 1009.9 |
| 20260504025744 | 31 | 158 | 3.2 | 3.2 | 0.00 | 0.00 | 0.00 | 65 | 1010.0 |
| 20260504025241 | 31 | 168 | 0.0 | 6.4 | 0.00 | 0.00 | 0.00 | 66 | 1009.7 |
| 20260504024738 | 31 | 251 | 0.0 | 6.4 | 0.00 | 0.00 | 0.00 | 67 | 1009.9 |
| 20260504024234 | 31 | 85 | 0.0 | 1.6 | 0.00 | 0.00 | 0.00 | 67 | 1009.9 |
| 20260504023731 | 30 | 146 | 0.0 | 3.2 | 0.00 | 0.00 | 0.00 | 68 | 1009.7 |
| 20260504023227 | 30 | 171 | 0.0 | 3.2 | 0.00 | 0.00 | 0.00 | 69 | 1009.7 |
| 20260504022724 | 30 | 145 | 1.6 | 3.2 | 0.00 | 0.00 | 0.00 | 71 | 1009.6 |
| 20260504022220 | 30 | 184 | 0.0 | 4.8 | 0.00 | 0.00 | 0.00 | 71 | 1009.4 |
| 20260504021717 | 30 | 196 | 0.0 | 1.6 | 0.00 | 0.00 | 0.00 | 73 | 1009.4 |
| 20260504021215 | 30 | 167 | 1.6 | 3.2 | 0.00 | 0.00 | 0.00 | 74 | 1009.5 |
| 20260504020711 | 30 | 185 | 1.6 | 3.2 | 0.00 | 0.00 | 0.00 | 74 | 1009.4 |
| 20260504020207 | 29 | 198 | 1.6 | 4.8 | 0.00 | 0.00 | 0.00 | 74 | 1009.2 |
| 20260504015704 | 29 | 189 | 1.6 | 1.6 | 0.00 | 0.00 | 0.00 | 75 | 1009.2 |
| 20260504015200 | 29 | 175 | 0.0 | 3.2 | 0.00 | 0.00 | 0.00 | 76 | 1009.2 |
| 20260504014656 | 28 | 181 | 1.6 | 3.2 | 0.00 | 0.00 | 0.00 | 78 | 1009.4 |
| 20260504014153 | 28 | 172 | 1.6 | 3.2 | 0.00 | 0.00 | 0.00 | 78 | 1009.1 |
| 20260504013651 | 28 | 173 | 1.6 | 6.4 | 0.00 | 0.00 | 0.00 | 78 | 1009.0 |
| 20260504013148 | 28 | 191 | 1.6 | 3.2 | 0.00 | 0.00 | 0.00 | 77 | 1008.7 |
| 20260504012645 | 28 | 117 | 1.6 | 3.2 | 0.00 | 0.00 | 0.00 | 79 | 1008.6 |
| 20260504012143 | 28 | 216 | 3.2 | 4.8 | 0.00 | 0.00 | 0.00 | 80 | 1008.5 |
| 20260504011639 | 28 | 146 | 1.6 | 3.2 | 0.00 | 0.00 | 0.00 | 80 | 1008.3 |
| 20260504011136 | 27 | 174 | 1.6 | 3.2 | 0.00 | 0.00 | 0.00 | 81 | 1007.9 |
| 20260504010632 | 27 | 186 | 3.2 | 4.8 | 0.00 | 0.00 | 0.00 | 81 | 1007.9 |
| 20260504010128 | 27 | 169 | 0.0 | 3.2 | 0.00 | 0.00 | 0.00 | 82 | 1007.9 |
| 20260504005625 | 27 | 148 | 1.6 | 4.8 | 0.00 | 0.00 | 0.00 | 83 | 1008.1 |
| 20260504005122 | 27 | 120 | 0.0 | 6.4 | 0.00 | 0.00 | 0.00 | 83 | 1008.0 |
| 20260504004620 | 26 | 173 | 0.0 | 6.4 | 0.00 | 0.00 | 0.00 | 84 | 1007.8 |
| 20260504004117 | 26 | 111 | 3.2 | 4.8 | 0.00 | 0.00 | 0.00 | 84 | 1007.8 |
| 20260504003613 | 26 | 146 | 0.0 | 4.8 | 0.00 | 0.00 | 0.00 | 85 | 1007.9 |
| 20260504003109 | 26 | 141 | 3.2 | 6.4 | 0.00 | 0.00 | 0.00 | 85 | 1007.5 |
| 20260504002606 | 26 | 191 | 3.2 | 4.8 | 0.00 | 0.00 | 0.00 | 85 | 1007.7 |
| 20260504002104 | 26 | 173 | 1.6 | 6.4 | 0.00 | 0.00 | 0.00 | 86 | 1007.5 |
| 20260504001602 | 26 | 124 | 1.6 | 4.8 | 0.00 | 0.00 | 0.00 | 86 | 1007.4 |
| 20260504001057 | 26 | 150 | 0.0 | 3.2 | 0.00 | 0.00 | 0.00 | 87 | 1007.5 |
| 20260504000555 | 26 | 162 | 3.2 | 3.2 | 0.00 | 0.00 | 0.00 | 87 | 1007.3 |
| 20260504000052 | 26 | 213 | 0.0 | 3.2 | 0.00 | 0.00 | 0.00 | 87 | 1007.3 |
| 20260503235550 | 26 | 182 | 3.2 | 9.7 | 0.00 | 0.00 | 0.00 | 87 | 1007.3 |
| 20260503235047 | 26 | 182 | 0.0 | 1.6 | 0.00 | 0.00 | 0.00 | 88 | 1007.3 |
| 20260503234544 | 26 | 159 | 1.6 | 4.8 | 0.00 | 0.00 | 0.00 | 88 | 1007.0 |
| 20260503234043 | 26 | 155 | 3.2 | 3.2 | 0.00 | 0.00 | 0.00 | 87 | 1007.2 |
| 20260503233539 | 26 | 168 | 3.2 | 3.2 | 0.00 | 0.00 | 0.00 | 87 | 1007.1 |
| 20260503233035 | 26 | 173 | 0.0 | 1.6 | 0.00 | 0.00 | 0.00 | 87 | 1007.2 |
| 20260503232532 | 26 | 170 | 0.0 | 1.6 | 0.00 | 0.00 | 0.00 | 87 | 1007.1 |
| 20260503232029 | 26 | 164 | 1.6 | 1.6 | 0.00 | 0.00 | 0.00 | 87 | 1006.9 |
| 20260503231527 | 26 | 173 | 3.2 | 4.8 | 0.00 | 0.00 | 0.00 | 86 | 1007.1 |
| 20260503231024 | 26 | 159 | 0.0 | 1.6 | 0.00 | 0.00 | 0.00 | 86 | 1007.2 |
| 20260503230520 | 26 | 156 | 0.0 | 1.6 | 0.00 | 0.00 | 0.00 | 86 | 1007.0 |
| 20260503230018 | 26 | 159 | 1.6 | 1.6 | 0.00 | 0.00 | 0.00 | 86 | 1007.2 |
| 20260503225515 | 26 | 155 | 0.0 | 1.6 | 0.00 | 0.00 | 0.00 | 86 | 1007.2 |
| 20260503225010 | 26 | 155 | 1.6 | 3.2 | 0.00 | 0.00 | 0.00 | 86 | 1007.2 |
| 20260503224507 | 26 | 169 | 1.6 | 4.8 | 0.00 | 0.00 | 0.00 | 86 | 1007.4 |
| 20260503224005 | 26 | 155 | 1.6 | 1.6 | 0.00 | 0.00 | 0.00 | 85 | 1007.3 |
| 20260503223503 | 26 | 162 | 0.0 | 1.6 | 0.00 | 0.00 | 0.00 | 85 | 1007.3 |
| 20260503222958 | 26 | 162 | 0.0 | 1.6 | 0.00 | 0.00 | 0.00 | 85 | 1007.5 |
| 20260503222457 | 26 | 164 | 1.6 | 1.6 | 0.00 | 0.00 | 0.00 | 85 | 1007.6 |
| 20260503221954 | 26 | 157 | 0.0 | 1.6 | 0.00 | 0.00 | 0.00 | 85 | 1007.3 |
| 20260503221452 | 26 | 157 | 0.0 | 1.6 | 0.00 | 0.00 | 0.00 | 85 | 1007.4 |
| 20260503220949 | 26 | 151 | 1.6 | 1.6 | 0.00 | 0.00 | 0.00 | 85 | 1007.4 |
| 20260503220445 | 26 | 150 | 0.0 | 3.2 | 0.00 | 0.00 | 0.00 | 84 | 1007.4 |
| 20260503215942 | 26 | 157 | 0.0 | 1.6 | 0.00 | 0.00 | 0.00 | 84 | 1007.7 |
| 20260503215439 | 26 | 158 | 0.0 | 1.6 | 0.00 | 0.00 | 0.00 | 84 | 1007.5 |
| 20260503214937 | 26 | 161 | 0.0 | 1.6 | 0.00 | 0.00 | 0.00 | 84 | 1007.5 |
| 20260503214435 | 26 | 147 | 0.0 | 1.6 | 0.00 | 0.00 | 0.00 | 85 | 1007.5 |
| 20260503213931 | 26 | 126 | 1.6 | 4.8 | 0.00 | 0.00 | 0.00 | 85 | 1007.3 |
| 20260503213430 | 26 | 171 | 1.6 | 3.2 | 0.00 | 0.00 | 0.00 | 84 | 1007.4 |
| 20260503212926 | 26 | 137 | 0.0 | 1.6 | 0.00 | 0.00 | 0.00 | 84 | 1007.6 |
| 20260503212423 | 26 | 129 | 0.0 | 1.6 | 0.00 | 0.00 | 0.00 | 84 | 1007.2 |
| 20260503211921 | 26 | 175 | 1.6 | 3.2 | 0.00 | 0.00 | 0.00 | 84 | 1007.4 |
| 20260503211417 | 27 | 176 | 0.0 | 0.0 | 0.00 | 0.00 | 0.00 | 83 | 1007.4 |
| 20260503210913 | 27 | 176 | 0.0 | 1.6 | 0.00 | 0.00 | 0.00 | 83 | 1007.5 |
| 20260503210410 | 27 | 176 | 1.6 | 3.2 | 0.00 | 0.00 | 0.00 | 83 | 1007.3 |
| 20260503205910 | 27 | 165 | 1.6 | 1.6 | 0.00 | 0.00 | 0.00 | 83 | 1007.3 |
| 20260503205408 | 27 | 158 | 0.0 | 3.2 | 0.00 | 0.00 | 0.00 | 83 | 1007.5 |
| 20260503204904 | 27 | 171 | 1.6 | 4.8 | 0.00 | 0.00 | 0.00 | 82 | 1007.6 |
| 20260503204401 | 27 | 162 | 1.6 | 1.6 | 0.00 | 0.00 | 0.00 | 82 | 1007.6 |
| 20260503203858 | 27 | 153 | 3.2 | 3.2 | 0.00 | 0.00 | 0.00 | 82 | 1007.6 |
| 20260503203355 | 27 | 163 | 0.0 | 0.0 | 0.00 | 0.00 | 0.00 | 82 | 1007.8 |
| 20260503202852 | 27 | 163 | 0.0 | 1.6 | 0.00 | 0.00 | 0.00 | 83 | 1007.4 |
| 20260503202350 | 27 | 141 | 0.0 | 3.2 | 0.00 | 0.00 | 0.00 | 82 | 1007.6 |
| 20260503201849 | 27 | 150 | 0.0 | 3.2 | 0.00 | 0.00 | 0.00 | 82 | 1007.6 |
| 20260503201345 | 27 | 165 | 0.0 | 1.6 | 0.00 | 0.00 | 0.00 | 82 | 1007.6 |
| 20260503200843 | 27 | 164 | 0.0 | 1.6 | 0.00 | 0.00 | 0.00 | 82 | 1007.5 |
| 20260503200338 | 27 | 167 | 0.0 | 1.6 | 0.00 | 0.00 | 0.00 | 81 | 1007.7 |
| 20260503195836 | 27 | 167 | 0.0 | 1.6 | 0.00 | 0.00 | 0.00 | 81 | 1007.9 |
| 20260503195332 | 27 | 167 | 0.0 | 1.6 | 0.00 | 0.00 | 0.00 | 81 | 1007.7 |
| 20260503194830 | 27 | 155 | 1.6 | 4.8 | 0.00 | 0.00 | 0.00 | 81 | 1007.7 |
| 20260503194325 | 27 | 172 | 0.0 | 1.6 | 0.00 | 0.00 | 0.00 | 81 | 1007.6 |
| 20260503193822 | 27 | 159 | 1.6 | 3.2 | 0.00 | 0.00 | 0.00 | 81 | 1007.6 |
| 20260503193318 | 27 | 145 | 3.2 | 4.8 | 0.00 | 0.00 | 0.00 | 81 | 1007.7 |
| 20260503192814 | 27 | 175 | 3.2 | 3.2 | 0.00 | 0.00 | 0.00 | 81 | 1007.7 |
| 20260503192309 | 27 | 151 | 1.6 | 1.6 | 0.00 | 0.00 | 0.00 | 81 | 1007.9 |
| 20260503191806 | 27 | 130 | 0.0 | 1.6 | 0.00 | 0.00 | 0.00 | 81 | 1007.9 |
| 20260503191303 | 27 | 178 | 0.0 | 1.6 | 0.00 | 0.00 | 0.00 | 81 | 1007.9 |
| 20260503190800 | 27 | 171 | 1.6 | 4.8 | 0.00 | 0.00 | 0.00 | 81 | 1007.8 |
| 20260503190257 | 27 | 154 | 1.6 | 1.6 | 0.00 | 0.00 | 0.00 | 81 | 1007.7 |
| 20260503185754 | 27 | 125 | 1.6 | 1.6 | 0.00 | 0.00 | 0.00 | 81 | 1007.7 |
| 20260503185249 | 27 | 154 | 0.0 | 3.2 | 0.00 | 0.00 | 0.00 | 81 | 1007.8 |
| 20260503184744 | 27 | 170 | 1.6 | 3.2 | 0.00 | 0.00 | 0.00 | 80 | 1008.0 |
| 20260503184241 | 27 | 157 | 3.2 | 4.8 | 0.00 | 0.00 | 0.00 | 80 | 1008.2 |
| 20260503183737 | 27 | 132 | 1.6 | 3.2 | 0.00 | 0.00 | 0.00 | 80 | 1007.9 |
| 20260503183235 | 27 | 168 | 0.0 | 3.2 | 0.00 | 0.00 | 0.00 | 81 | 1008.0 |
| 20260503182732 | 27 | 164 | 1.6 | 3.2 | 0.00 | 0.00 | 0.00 | 80 | 1008.0 |
| 20260503182231 | 27 | 147 | 1.6 | 3.2 | 0.00 | 0.00 | 0.00 | 80 | 1008.0 |
| 20260503181727 | 27 | 104 | 0.0 | 1.6 | 0.00 | 0.00 | 0.00 | 80 | 1007.8 |
| 20260503181224 | 27 | 135 | 0.0 | 3.2 | 0.00 | 0.00 | 0.00 | 79 | 1008.1 |
| 20260503180720 | 27 | 125 | 1.6 | 3.2 | 0.00 | 0.00 | 0.00 | 78 | 1007.9 |
| 20260503180219 | 27 | 167 | 1.6 | 1.6 | 0.00 | 0.00 | 0.00 | 78 | 1007.9 |
| 20260503175715 | 27 | 169 | 0.0 | 3.2 | 0.00 | 0.00 | 0.00 | 78 | 1007.8 |
| 20260503175214 | 28 | 160 | 3.2 | 4.8 | 0.00 | 0.00 | 0.00 | 78 | 1007.8 |
| 20260503174709 | 28 | 167 | 3.2 | 3.2 | 0.00 | 0.00 | 0.00 | 78 | 1007.8 |
| 20260503174207 | 28 | 165 | 0.0 | 4.8 | 0.00 | 0.00 | 0.00 | 78 | 1007.7 |
| 20260503173702 | 28 | 160 | 1.6 | 3.2 | 0.00 | 0.00 | 0.00 | 78 | 1008.0 |
| 20260503173158 | 28 | 173 | 1.6 | 3.2 | 0.00 | 0.00 | 0.00 | 78 | 1007.7 |
| 20260503172655 | 28 | 182 | 1.6 | 3.2 | 0.00 | 0.00 | 0.00 | 78 | 1007.7 |
| 20260503172152 | 28 | 185 | 4.8 | 6.4 | 0.00 | 0.00 | 0.00 | 78 | 1007.4 |
| 20260503171648 | 28 | 167 | 3.2 | 3.2 | 0.00 | 0.00 | 0.00 | 78 | 1007.7 |
| 20260503171146 | 28 | 185 | 4.8 | 4.8 | 0.00 | 0.00 | 0.00 | 79 | 1007.5 |
| 20260503170643 | 28 | 178 | 1.6 | 6.4 | 0.00 | 0.00 | 0.00 | 78 | 1007.6 |
| 20260503170140 | 28 | 137 | 0.0 | 1.6 | 0.00 | 0.00 | 0.00 | 79 | 1007.3 |
| 20260503150531 | 30 | 169 | 1.6 | 3.2 | 0.00 | 0.00 | 0.00 | 74 | 1006.7 |
| 20260503130926 | 31 | 237 | 0.0 | 0.0 | 0.00 | 0.00 | 0.00 | 68 | 1005.1 |
| 20260503130424 | 31 | 237 | 0.0 | 0.0 | 0.00 | 0.00 | 0.00 | 68 | 1005.2 |
| 20260503110326 | 35 | 213 | 0.0 | 1.6 | 0.00 | 0.00 | 0.00 | 60 | 1003.5 |
| 20260503100252 | 35 | 248 | 1.6 | 3.2 | 0.00 | 0.00 | 0.00 | 59 | 1003.7 |
| 20260503090212 | 34 | 265 | 0.0 | 1.6 | 0.00 | 0.00 | 0.00 | 60 | 1004.6 |
| 20260503081144 | 34 | 214 | 1.6 | 3.2 | 0.00 | 0.00 | 0.00 | 57 | 1005.5 |
| 20260503080640 | 34 | 309 | 0.0 | 4.8 | 0.00 | 0.00 | 0.00 | 58 | 1005.6 |
| 20260503080137 | 33 | 204 | 3.2 | 6.4 | 0.00 | 0.00 | 0.00 | 57 | 1005.6 |
| 20260503072614 | 33 | 171 | 1.6 | 3.2 | 0.00 | 0.00 | 0.00 | 54 | 1006.0 |
| 20260503072111 | 33 | 268 | 1.6 | 6.4 | 0.00 | 0.00 | 0.00 | 53 | 1006.0 |
| 20260503071608 | 33 | 203 | 1.6 | 3.2 | 0.00 | 0.00 | 0.00 | 55 | 1006.1 |
| 20260503071105 | 33 | 235 | 3.2 | 3.2 | 0.00 | 0.00 | 0.00 | 55 | 1006.2 |
| 20260503070601 | 32 | 258 | 0.0 | 1.6 | 0.00 | 0.00 | 0.00 | 60 | 1006.3 |